[[{"header":{"parameterUnit":"m.s-1","parameterCategory":2,"la1":30.2992,"la2":30.254,"lo1":-89.0895,"lo2":-89.0443,"dy":0.0025,"dx":0.0025,"nx":19,"ny":19,"refTime":"2026-05-24T09:00:00:Z","depth":"0","parameterNumber":2,"parameterNumberName":"U-component_of_CURRENTS"},"data":[0,0,0,0.1273,0.1273,0.1302,0.1303,0.1366,0.1366,0,0,0,0,0,0,0,0,0,0,0,0.1261,0.1261,0.1273,0.1273,0.1302,0.1303,0.1366,0.1366,0,0,0,0,0,0,0,0,0,0,0,0.1261,0.1261,0.1261,0.1273,0.1302,0.1303,0.1366,0.134,0,0,0,0,0,0,0,0,0,0,0.131,0.1283,0.1261,0.1261,0.1273,0.1302,0.1303,0.1338,0.1342,0.1357,0,0.1351,0,0.1357,0.137,0.137,0,0,0,0.1284,0.1281,0.1294,0.1261,0.1274,0.1302,0.1292,0.134,0.1343,0.1361,0.1352,0.1354,0.1358,0.1371,0.1371,0.14,0.14,0,0,0.1283,0.1265,0.1291,0.1295,0.1269,0.1291,0.1293,0.1342,0.1338,0.1352,0.1356,0.1359,0.1371,0.1371,0.14,0.14,0,0,0,0.1271,0.1264,0.1275,0.1293,0.1294,0.1292,0.1294,0.1336,0.134,0.1356,0.136,0.1371,0.1372,0.14,0.14,0.1364,0,0,0,0.127,0.1256,0.1274,0.1264,0.1293,0.131,0.1286,0.1337,0.1343,0.1359,0.1371,0.1373,0.14,0.14,0.1365,0.1346,0,0,0,0.1262,0.1255,0.1256,0.1263,0.1272,0.1309,0.1317,0.1338,0.1344,0.137,0.1373,0.14,0.14,0.1366,0.1348,0.1346,0,0,0,0.1248,0.1231,0.1255,0.1234,0.1271,0.1281,0.1317,0.1328,0.1345,0.1372,0.14,0.14,0.1367,0.135,0.1347,0.133,0.1324,0,0,0.1219,0.1227,0.1215,0.1237,0.1232,0.1278,0.1281,0.132,0.1349,0.1389,0.1389,0.1365,0.1349,0.1347,0.1316,0.131,0,0,0,0.1201,0.1193,0.1195,0.1196,0.1217,0.1247,0.1285,0.1306,0.134,0.1357,0.137,0.1361,0.1361,0.1353,0.1348,0.1274,0.1399,0.1399,0.1399,0.116,0.1167,0.115,0.1167,0.1179,0.1226,0.1249,0.1288,0.1318,0.1325,0.1335,0.1313,0.1304,0.13,0.1224,0.1342,0.1342,0.1342,0.1341,0.1122,0.111,0.1124,0.1111,0.1149,0.1163,0.1223,0.1249,0.1282,0.1306,0.1308,0.1319,0.1293,0.1214,0.1339,0.134,0.134,0.134,0.134,0.1098,0.1092,0.1084,0.1073,0.1086,0.1129,0.1148,0.1202,0.1247,0.1251,0.1263,0.1264,0.1192,0.1259,0.1259,0.1259,0.1259,0.1258,0.1258,0.1078,0.107,0.1037,0.1034,0.1026,0.1044,0.1108,0.1135,0.119,0.1222,0.1222,0.117,0.1289,0.129,0.1257,0.1257,0.1257,0.1257,0.1258,0.1039,0.1032,0.0984,0.0963,0.0949,0.0956,0.1018,0.1079,0.112,0.1138,0.1101,0.1214,0.1227,0.1231,0.1231,0.1185,0.1185,0.1185,0.1185,0.1011,0.1005,0.0928,0.0885,0.0875,0.0911,0.0922,0.098,0.1027,0.1027,0.1029,0.1025,0.1032,0.1033,0.1042,0.1038,0.0944,0.0944,0.0944,0.0979,0.0959,0.0893,0.0848,0.0836,0.0865,0.0869,0.0868,0.0918,0.0926,0.0925,0.0935,0.0924,0.094,0.0942,0.096,0.0955,0,0]},{"header":{"parameterUnit":"m.s-1","parameterCategory":2,"la1":30.2992,"la2":30.254,"lo1":-89.0895,"lo2":-89.0443,"dy":0.0025,"dx":0.0025,"nx":19,"ny":19,"refTime":"2026-05-24T09:00:00:Z","depth":"0","parameterNumber":3,"parameterNumberName":"V-component_of_CURRENTS"},"data":[0,0,0,-0.1211,-0.1212,-0.1238,-0.1238,-0.1243,-0.1243,0,0,0,0,0,0,0,0,0,0,0,-0.1201,-0.1201,-0.1211,-0.1212,-0.1238,-0.1238,-0.1243,-0.1243,0,0,0,0,0,0,0,0,0,0,0,-0.1201,-0.1201,-0.1202,-0.1212,-0.1238,-0.1238,-0.1243,-0.1229,0,0,0,0,0,0,0,0,0,0,-0.1206,-0.1192,-0.1201,-0.1202,-0.1213,-0.1238,-0.1238,-0.1228,-0.123,-0.1225,0,-0.1234,0,-0.1241,-0.1243,-0.1243,0,0,0,-0.1206,-0.119,-0.1211,-0.1202,-0.1213,-0.1238,-0.1225,-0.1229,-0.1231,-0.1226,-0.1234,-0.1235,-0.1241,-0.1243,-0.1243,-0.123,-0.123,0,0,-0.1205,-0.1191,-0.121,-0.1212,-0.1226,-0.1224,-0.1225,-0.123,-0.1226,-0.1234,-0.1235,-0.1242,-0.1243,-0.1243,-0.123,-0.123,0,0,0,-0.1205,-0.119,-0.121,-0.1211,-0.122,-0.1225,-0.1227,-0.1225,-0.1236,-0.1235,-0.1242,-0.1243,-0.1243,-0.123,-0.123,-0.1183,0,0,0,-0.1203,-0.1191,-0.121,-0.12,-0.1221,-0.1224,-0.1221,-0.1236,-0.1237,-0.1242,-0.1243,-0.1243,-0.123,-0.123,-0.1185,-0.1152,0,0,0,-0.1199,-0.119,-0.1198,-0.1199,-0.1215,-0.1225,-0.1235,-0.1236,-0.1241,-0.1243,-0.1243,-0.1231,-0.123,-0.1186,-0.1155,-0.11,0,0,0,-0.1177,-0.118,-0.1197,-0.1194,-0.1215,-0.1217,-0.1235,-0.1228,-0.1227,-0.1243,-0.123,-0.123,-0.1187,-0.1157,-0.1102,-0.1015,-0.0996,0,0,-0.1168,-0.1178,-0.1175,-0.1192,-0.1185,-0.1212,-0.1194,-0.1201,-0.122,-0.1226,-0.1226,-0.1184,-0.1155,-0.11,-0.0992,-0.0974,0,0,0,-0.1164,-0.1164,-0.1164,-0.1164,-0.1172,-0.1168,-0.1183,-0.1184,-0.1185,-0.122,-0.1189,-0.1172,-0.1139,-0.1092,-0.1078,-0.0918,-0.1228,-0.1228,-0.1228,-0.1125,-0.1133,-0.1122,-0.1134,-0.1127,-0.1132,-0.1124,-0.1131,-0.1158,-0.1149,-0.1138,-0.1069,-0.102,-0.1008,-0.0845,-0.115,-0.115,-0.115,-0.115,-0.1103,-0.1094,-0.1091,-0.1087,-0.1081,-0.1066,-0.1063,-0.1075,-0.1051,-0.1094,-0.1064,-0.105,-0.0989,-0.0821,-0.1147,-0.1147,-0.1148,-0.1148,-0.1148,-0.1073,-0.1071,-0.1074,-0.1057,-0.1027,-0.1023,-0.0972,-0.0986,-0.0996,-0.0974,-0.0913,-0.0913,-0.0758,-0.0954,-0.0954,-0.0954,-0.0953,-0.0953,-0.0953,-0.1042,-0.1047,-0.1033,-0.1022,-0.0996,-0.0954,-0.0918,-0.0884,-0.0837,-0.0841,-0.084,-0.0703,-0.1009,-0.101,-0.0947,-0.0948,-0.0949,-0.0949,-0.095,-0.1002,-0.1015,-0.0993,-0.0974,-0.0916,-0.0852,-0.0826,-0.0721,-0.0686,-0.0641,-0.0485,-0.0767,-0.0766,-0.0778,-0.0773,-0.0652,-0.0652,-0.0652,-0.0652,-0.0971,-0.0978,-0.0944,-0.0899,-0.0842,-0.0794,-0.0664,-0.0569,-0.0402,-0.0286,-0.0272,-0.0279,-0.0298,-0.0272,-0.0294,-0.0281,-0.0038,-0.0037,-0.0036,-0.0934,-0.0936,-0.0894,-0.0865,-0.08,-0.0722,-0.0589,-0.0387,-0.0114,0.0002,-0.0058,-0.0084,-0.0089,-0.0132,-0.0094,-0.0139,-0.0121,0,0]}],[{"header":{"parameterUnit":"m.s-1","parameterCategory":2,"la1":30.2992,"la2":30.254,"lo1":-89.0895,"lo2":-89.0443,"dy":0.0025,"dx":0.0025,"nx":19,"ny":19,"refTime":"2026-05-24T09:00:00:Z","depth":"2","parameterNumber":2,"parameterNumberName":"U-component_of_CURRENTS"},"data":[0,0,0,-0.0082,-0.0082,-0.0019,-0.0019,0.0175,0.0177,0,0,0,0,0,0,0,0,0,0,0,-0.0085,-0.0085,-0.0082,-0.0081,-0.0019,-0.0019,0.0175,0.0177,0,0,0,0,0,0,0,0,0,0,0,-0.0085,-0.0085,-0.0085,-0.0081,-0.0019,-0.0019,0.0175,0.0107,0,0,0,0,0,0,0,0,0,0,0.0036,0.0025,-0.0085,-0.0085,-0.0081,-0.002,-0.0019,0.0103,0.0111,0.017,0,0.0169,0,0.0158,0.019,0.019,0,0,0,-0.0049,0.0018,0.0005,-0.0085,-0.0081,-0.002,-0.0038,0.0107,0.0117,0.0181,0.0171,0.0177,0.0162,0.0191,0.0192,0.0427,0.0428,0,0,-0.0053,-0.0038,-0.0002,0.0011,-0.0076,-0.0041,-0.0037,0.0112,0.0138,0.0172,0.0181,0.0165,0.0192,0.0194,0.0426,0.0428,0,0,0,-0.0084,-0.004,-0.0057,0.0004,-0.0005,-0.004,-0.0035,0.0132,0.0117,0.0183,0.0167,0.0193,0.0196,0.0425,0.0427,0.0432,0,0,0,-0.0085,-0.0062,-0.0059,-0.0044,-0.0009,0.0053,-0.0017,0.0108,0.0123,0.0166,0.0193,0.0197,0.0424,0.0426,0.0429,0.0416,0,0,0,-0.0086,-0.0061,-0.0065,-0.0044,-0.0038,0.0049,0.0045,0.0111,0.0113,0.0191,0.0198,0.0423,0.0426,0.0427,0.0412,0.0457,0,0,0,-0.0057,-0.0056,-0.0064,-0.0042,-0.0039,0.0033,0.0044,0.0126,0.0195,0.0194,0.0424,0.0427,0.0426,0.041,0.0455,0.0403,0.0409,0,0,-0.0047,-0.0053,-0.0041,-0.0048,0.0006,0.0027,0.0136,0.022,0.0261,0.0386,0.039,0.043,0.0412,0.0456,0.0563,0.0564,0,0,0,-0.0031,-0.0025,-0.0003,0.0026,0.0072,0.0145,0.0222,0.0272,0.0387,0.0306,0.0486,0.0475,0.0502,0.0468,0.0471,0.044,0.0439,0.0439,0.0439,0.0036,0.0033,0.007,0.0089,0.0149,0.0252,0.0325,0.0416,0.045,0.051,0.0521,0.0613,0.058,0.0581,0.0578,0.0578,0.0578,0.0578,0.0578,0.006,0.0079,0.0105,0.0126,0.0205,0.0298,0.0434,0.0474,0.0599,0.0595,0.0621,0.0527,0.0583,0.058,0.058,0.0579,0.0579,0.0579,0.0579,0.011,0.011,0.011,0.0143,0.0222,0.0314,0.0418,0.051,0.0598,0.0639,0.0625,0.0624,0.0584,0.0663,0.0663,0.0663,0.0663,0.0663,0.0663,0.0154,0.0148,0.015,0.0164,0.0201,0.0274,0.0416,0.0503,0.0598,0.0633,0.0633,0.0642,0.0639,0.0592,0.0666,0.0665,0.0665,0.0665,0.0665,0.0201,0.0181,0.0176,0.019,0.0238,0.0298,0.0396,0.0522,0.0609,0.0647,0.0643,0.0643,0.0635,0.0633,0.0588,0.0657,0.0657,0.0657,0.0657,0.024,0.0223,0.0219,0.0229,0.0272,0.0319,0.0399,0.038,0.0448,0.0374,0.0385,0.0329,0.0337,0.0308,0.0314,0.0261,0.0244,0.0243,0.0242,0.0274,0.0252,0.0264,0.0237,0.0286,0.034,0.0366,0.0219,0.0084,0.0216,0.022,0.0647,0.0596,0.0596,0.0578,0.0577,0.0502,0,0]},{"header":{"parameterUnit":"m.s-1","parameterCategory":2,"la1":30.2992,"la2":30.254,"lo1":-89.0895,"lo2":-89.0443,"dy":0.0025,"dx":0.0025,"nx":19,"ny":19,"refTime":"2026-05-24T09:00:00:Z","depth":"2","parameterNumber":3,"parameterNumberName":"V-component_of_CURRENTS"},"data":[0,0,0,0.068,0.0681,0.0696,0.0696,0.0691,0.0691,0,0,0,0,0,0,0,0,0,0,0,0.0657,0.0656,0.068,0.0681,0.0696,0.0696,0.0691,0.0691,0,0,0,0,0,0,0,0,0,0,0,0.0657,0.0656,0.0656,0.0681,0.0696,0.0696,0.0691,0.0686,0,0,0,0,0,0,0,0,0,0,0.0674,0.0635,0.0656,0.0656,0.0681,0.0696,0.0696,0.0686,0.0686,0.0677,0,0.0666,0,0.0686,0.069,0.069,0,0,0,0.068,0.0634,0.0662,0.0656,0.0681,0.0696,0.0689,0.0686,0.0686,0.0678,0.0666,0.0666,0.0686,0.069,0.069,0.0687,0.0687,0,0,0.0679,0.064,0.0662,0.0662,0.0666,0.0689,0.069,0.0687,0.0664,0.0666,0.0667,0.0686,0.069,0.069,0.0687,0.0687,0,0,0,0.0677,0.0639,0.0667,0.0661,0.067,0.0689,0.069,0.0664,0.0679,0.0667,0.0686,0.069,0.069,0.0687,0.0687,0.0676,0,0,0,0.0677,0.0639,0.0666,0.0641,0.067,0.0666,0.0667,0.0679,0.068,0.0686,0.069,0.069,0.0687,0.0687,0.0676,0.0657,0,0,0,0.0659,0.0637,0.0639,0.0639,0.0651,0.0667,0.0681,0.068,0.0691,0.069,0.069,0.0687,0.0687,0.0676,0.0658,0.0651,0,0,0,0.0622,0.0615,0.0637,0.0639,0.0651,0.0701,0.0682,0.0687,0.0685,0.069,0.0687,0.0687,0.0676,0.0659,0.0651,0.0739,0.0744,0,0,0.0604,0.061,0.0622,0.0644,0.0694,0.07,0.0729,0.0702,0.0686,0.0686,0.0686,0.0676,0.0658,0.0651,0.0748,0.0752,0,0,0,0.0614,0.0612,0.0635,0.066,0.0709,0.0727,0.0725,0.0719,0.0691,0.0686,0.0682,0.0671,0.0667,0.0722,0.0725,0.0688,0.0688,0.0688,0.0688,0.0513,0.0579,0.0602,0.0673,0.0695,0.0738,0.0744,0.0729,0.0713,0.0691,0.0667,0.0659,0.0718,0.0722,0.068,0.068,0.068,0.068,0.068,0.0497,0.0517,0.0575,0.0602,0.0649,0.0647,0.0712,0.0702,0.069,0.0675,0.0672,0.0713,0.0725,0.0679,0.0679,0.068,0.068,0.068,0.068,0.0434,0.0459,0.046,0.0497,0.0502,0.0552,0.0592,0.0625,0.0643,0.065,0.0692,0.0694,0.0642,0.063,0.063,0.063,0.063,0.063,0.063,0.0361,0.0393,0.0358,0.039,0.0371,0.0396,0.0493,0.0556,0.0643,0.0679,0.068,0.0642,0.0643,0.0639,0.0628,0.0628,0.0628,0.0629,0.0629,0.0319,0.0289,0.026,0.023,0.0256,0.0333,0.0433,0.0618,0.0666,0.0736,0.0716,0.0714,0.0724,0.0723,0.0721,0.0731,0.0731,0.0731,0.0731,0.0252,0.0256,0.0175,0.0152,0.0196,0.0315,0.0479,0.0619,0.0726,0.0733,0.0732,0.0764,0.0761,0.0773,0.0771,0.077,0.0792,0.0792,0.0791,0.0218,0.0195,0.0119,0.0109,0.0167,0.0334,0.0497,0.059,0.0683,0.0786,0.0657,0.0752,0.08,0.0795,0.0815,0.081,0.081,0,0]}],[{"header":{"parameterUnit":"m.s-1","parameterCategory":2,"la1":30.2992,"la2":30.254,"lo1":-89.0895,"lo2":-89.0443,"dy":0.0025,"dx":0.0025,"nx":19,"ny":19,"refTime":"2026-05-24T09:00:00:Z","depth":"4","parameterNumber":2,"parameterNumberName":"U-component_of_CURRENTS"},"data":[0,0,0,-0.063,-0.0632,-0.0754,-0.0755,-0.0942,-0.0943,0,0,0,0,0,0,0,0,0,0,0,-0.0596,-0.0596,-0.063,-0.0632,-0.0754,-0.0755,-0.0942,-0.0943,0,0,0,0,0,0,0,0,0,0,0,-0.0596,-0.0596,-0.0597,-0.0632,-0.0754,-0.0755,-0.0941,-0.0848,0,0,0,0,0,0,0,0,0,0,-0.0729,-0.0687,-0.0596,-0.0597,-0.0633,-0.0754,-0.0755,-0.0844,-0.0854,-0.0885,0,-0.0891,0,-0.0906,-0.0954,-0.0954,0,0,0,-0.0662,-0.0679,-0.0699,-0.0597,-0.0633,-0.0754,-0.0708,-0.085,-0.0861,-0.0899,-0.0894,-0.0901,-0.0909,-0.0955,-0.0955,-0.1164,-0.1165,0,0,-0.0655,-0.0637,-0.0691,-0.0706,-0.0649,-0.0703,-0.0711,-0.0857,-0.087,-0.0895,-0.0905,-0.0912,-0.0956,-0.0957,-0.1163,-0.1164,0,0,0,-0.0615,-0.0632,-0.065,-0.0699,-0.071,-0.0706,-0.0715,-0.0864,-0.0866,-0.0907,-0.0914,-0.0957,-0.0958,-0.1162,-0.1163,-0.1157,0,0,0,-0.0613,-0.0606,-0.0646,-0.064,-0.0706,-0.0785,-0.0719,-0.0857,-0.0873,-0.0913,-0.0957,-0.096,-0.116,-0.1162,-0.1155,-0.1138,0,0,0,-0.0593,-0.0605,-0.0611,-0.0638,-0.0675,-0.0782,-0.0795,-0.0861,-0.0876,-0.0954,-0.096,-0.1159,-0.1162,-0.1152,-0.1135,-0.1193,0,0,0,-0.0583,-0.0593,-0.0611,-0.0645,-0.0673,-0.0786,-0.0794,-0.0908,-0.0984,-0.0957,-0.1161,-0.1163,-0.1152,-0.1134,-0.119,-0.0888,0,0,0,-0.0587,-0.0593,-0.0618,-0.0636,-0.0738,-0.0772,-0.0903,-0.1004,-0.1032,-0.1117,-0.1122,-0.1155,-0.1135,-0.1192,-0.1049,0,0,0,0,-0.0616,-0.0632,-0.0671,-0.0732,-0.0813,-0.0913,-0.1006,-0.1057,-0.1155,-0.108,-0.1212,-0.12,-0.1235,-0.1056,-0.1176,-0.1176,-0.1175,-0.1175,-0.1175,-0.059,-0.0651,-0.0712,-0.0802,-0.0889,-0.1037,-0.1125,-0.1212,-0.1217,-0.1273,-0.1237,-0.1331,-0.1146,-0.1294,-0.1294,-0.1294,-0.1294,-0.1294,-0.1294,-0.0594,-0.0626,-0.073,-0.0773,-0.0901,-0.0988,-0.1203,-0.1244,-0.135,-0.132,-0.1355,-0.1114,-0.1295,-0.1295,-0.1295,-0.1294,-0.1294,-0.1294,-0.1294,-0.056,-0.0586,-0.0581,-0.0673,-0.0785,-0.0934,-0.1072,-0.1247,-0.1318,-0.1371,-0.1189,-0.135,-0.1303,-0.1375,-0.1375,-0.1375,-0.1375,-0.1375,-0.1376,-0.0496,-0.0527,-0.0514,-0.0596,-0.0642,-0.0756,-0.1003,-0.1045,-0.1193,-0.1159,-0.1351,-0.1359,-0.1357,-0.1311,-0.1379,-0.1378,-0.1378,-0.1378,-0.1377,-0.0479,-0.0435,-0.0463,-0.0473,-0.0576,-0.0668,-0.0873,-0.0885,-0.094,-0.0906,-0.108,-0.1093,-0.1072,-0.1077,-0.1019,-0.1004,-0.1,-0.0996,0,-0.0437,-0.0432,-0.0448,-0.0498,-0.0528,-0.0662,-0.0586,-0.0612,-0.0771,-0.0806,-0.0968,-0.1171,-0.1177,-0.1157,-0.1156,-0.109,0,0,0,-0.0428,-0.0439,-0.0453,-0.048,-0.0527,-0.0519,-0.0563,-0.0536,-0.0789,-0.0605,-0.0905,-0.0929,-0.0992,-0.1388,-0.139,-0.1386,-0.1313,0,0]},{"header":{"parameterUnit":"m.s-1","parameterCategory":2,"la1":30.2992,"la2":30.254,"lo1":-89.0895,"lo2":-89.0443,"dy":0.0025,"dx":0.0025,"nx":19,"ny":19,"refTime":"2026-05-24T09:00:00:Z","depth":"4","parameterNumber":3,"parameterNumberName":"V-component_of_CURRENTS"},"data":[0,0,0,0.0342,0.0341,0.033,0.033,0.0333,0.0333,0,0,0,0,0,0,0,0,0,0,0,0.0359,0.0359,0.0342,0.0341,0.033,0.033,0.0333,0.0333,0,0,0,0,0,0,0,0,0,0,0,0.0359,0.0359,0.0358,0.0341,0.033,0.033,0.0333,0.0341,0,0,0,0,0,0,0,0,0,0,0.0351,0.0362,0.0359,0.0358,0.034,0.0329,0.033,0.0341,0.034,0.0338,0,0.0335,0,0.0321,0.0332,0.0332,0,0,0,0.0356,0.0363,0.0351,0.0358,0.034,0.0329,0.0339,0.0341,0.034,0.0337,0.0335,0.0334,0.0321,0.0332,0.0332,0.0311,0.0311,0,0,0.0357,0.0365,0.0352,0.035,0.0335,0.0339,0.0338,0.034,0.0343,0.0335,0.0334,0.0321,0.0332,0.0332,0.0311,0.0311,0,0,0,0.0348,0.0366,0.0355,0.0351,0.034,0.0338,0.0338,0.0344,0.0338,0.0334,0.0321,0.0332,0.0332,0.0312,0.0311,0.0262,0,0,0,0.0349,0.0359,0.0355,0.0361,0.034,0.0339,0.0342,0.0338,0.0337,0.0321,0.0332,0.0331,0.0312,0.0311,0.0264,0.0226,0,0,0,0.036,0.036,0.0357,0.0362,0.0347,0.0338,0.0333,0.0338,0.0328,0.0332,0.0331,0.0312,0.0311,0.0265,0.0229,0.0217,0,0,0,0.0373,0.0333,0.0357,0.0308,0.0347,0.0297,0.0333,0.0334,0.0338,0.0332,0.0312,0.0311,0.0266,0.0231,0.0219,0.0216,0,0,0,0.0318,0.0327,0.0293,0.0313,0.0265,0.03,0.0249,0.0295,0.0331,0.0315,0.0315,0.0263,0.0229,0.0217,0.0198,0,0,0,0,0.0272,0.0269,0.0253,0.0238,0.0211,0.0193,0.0234,0.0254,0.0284,0.0327,0.0271,0.0251,0.0245,0.0249,0.031,0.031,0.031,0.031,0.031,0.026,0.0236,0.0192,0.017,0.014,0.0141,0.0132,0.017,0.0226,0.0249,0.0217,0.0179,0.0183,0.0234,0.0233,0.0233,0.0233,0.0233,0.0233,0.0218,0.0194,0.0166,0.0144,0.0113,0.0096,0.0051,0.0099,0.0114,0.0171,0.0169,0.0204,0.0228,0.0229,0.023,0.023,0.0231,0.0231,0.0231,0.0255,0.0224,0.0248,0.0204,0.0145,0.0092,-0.0013,0.0009,0.0073,0.0058,0.0108,0.0146,0.0144,0.009,0.009,0.009,0.0089,0.0089,0.0089,0.0285,0.0274,0.0302,0.0246,0.0195,0.0091,-0.0019,-0.0065,-0.0029,0.0039,0.0067,0.0131,0.0136,0.0136,0.0085,0.0086,0.0087,0.0087,0.0087,0.0274,0.0338,0.0354,0.0337,0.0149,0.0027,-0.0083,-0.0133,-0.0145,-0.0111,0.003,0.0034,0.0051,0.0057,0.0056,-0.0021,-0.0021,-0.0021,0,0.0288,0.0306,0.037,0.0288,0.0111,-0.0059,-0.0149,-0.0203,-0.0119,-0.0052,-0.0138,0.0023,0.0027,0.0047,0.0053,0.005,0,0,0,0.0255,0.031,0.0344,0.0302,0.0075,-0.0122,-0.0184,-0.0153,-0.0105,-0.0162,-0.0027,-0.0026,-0.0099,0.0075,0.0111,0.0116,0.0118,0,0]}]]